Tracking 28570 objects as of 5-Mar-2024
HD Live streaming from Space Station
objects crossing your sky now

GLOBAL-8

Track GLOBAL-8 now!
10-day predictions


NORAD ID: 46089
Int'l Code: 2020-055BQ
Perigee: 316.2 km
Apogee: 322.2 km
Inclination: 53.0 °
Period: 90.8 minutes
Semi major axis: 6690 km
RCS: Unknown
Launch date: August 7, 2020
Source: United States (US)
Launch site: AIR FORCE EASTERN TEST RANGE (AFETR)
Your satellite tracking list
Your tracking list is empty




NASA's NSSDC Master Catalog

Two Line Element Set (TLE):
1 46089U 20055BQ  24064.26403973  .00317876  00000-0  11898-2 0  9990
2 46089  52.9785  71.3598 0004498  49.6762 310.4653 15.86526896207969
Source of the keplerian elements: AFSPC